Wind_Speed
16 17 17 16 17 17 23 35 37 35 35 35 32 27 30 27 28 30 30 31 31 34 36 34 34 39 43 46 21 19 17 14 13 12 11 11 10 8 8 10 11 12 13 11 12 13 13 15 17
11 12 15 16 18 22 28 37 38 38 35 33 28 26 27 30 32 35 34 35 38 37 40 41 40 43 35 23 23 20 18 14 11 10 10 11 9 9 11 11 11 11 13 12 12 14 15 16 17
11 12 15 16 19 25 31 38 40 34 34 31 23 21 26 30 30 28 32 36 35 37 37 40 40 39 37 25 24 25 21 17 13 10 11 13 10 10 12 12 10 10 12 15 17 16 16 16 17
11 12 14 16 20 25 32 37 39 37 33 36 25 20 21 25 28 30 36 33 37 37 37 41 35 32 27 32 29 27 21 17 14 12 12 14 12 10 12 13 11 9 10 13 19 19 19 19 19
12 11 13 16 19 24 31 37 33 23 23 27 21 24 25 25 29 34 39 34 38 37 34 38 34 33 23 23 24 26 25 22 18 15 15 15 12 12 14 15 10 10 13 12 15 21 21 21 21
16 14 15 16 19 26 30 36 39 34 27 27 27 28 29 30 31 36 41 43 38 40 37 36 33 32 31 17 24 20 22 25 23 19 18 16 15 14 14 15 12 13 15 15 14 19 21 24 24
10 14 16 18 22 30 35 36 38 38 34 32 33 34 34 37 38 40 44 47 44 46 43 45 36 34 32 38 19 26 23 25 27 25 20 18 19 16 16 16 13 14 15 15 16 17 25 26 27
12 11 14 19 24 32 39 41 42 42 39 39 38 40 43 43 44 44 44 43 42 44 46 44 39 37 34 38 39 27 25 26 26 27 25 21 20 19 9 20 15 13 14 15 13 20 26 31 32
13 14 16 18 24 32 38 43 43 44 47 48 50 50 49 47 46 46 45 45 42 37 38 40 40 39 39 39 37 32 26 33 29 32 27 23 23 20 21 20 17 14 13 15 16 21 31 35 34
10 11 13 16 21 27 33 40 46 49 50 49 51 54 54 55 51 50 50 45 41 37 38 39 38 40 40 40 40 42 34 34 33 31 29 28 23 19 19 21 18 15 12 12 9 12 31 32 33
12 15 17 20 23 27 32 37 41 45 51 55 56 57 56 57 56 54 53 52 49 44 39 40 38 42 43 40 39 35 31 35 35 36 33 28 25 21 20 18 17 17 13 12 9 14 25 25 35
23 25 27 29 31 33 36 40 45 47 49 50 52 55 57 61 62 60 59 57 55 52 47 42 41 41 44 43 39 33 37 35 35 38 39 34 30 26 22 21 19 21 16 16 11 13 24 30 34
25 27 28 32 35 39 42 43 44 46 46 49 53 55 58 60 61 61 61 62 62 58 51 48 44 43 43 44 41 37 36 42 33 36 34 37 33 30 26 27 23 24 23 21 16 20 21 32 35
30 31 32 35 39 43 44 44 44 43 45 48 50 54 57 59 63 64 62 59 58 57 54 51 49 46 44 46 44 39 38 42 36 39 32 29 33 33 37 31 28 27 29 25 24 16 22 33 37
30 30 33 38 42 44 43 44 47 46 47 49 55 56 57 60 59 61 64 62 61 58 54 52 52 50 46 49 47 44 42 41 42 38 38 36 33 33 37 30 32 30 32 29 27 25 22 30 38
29 33 37 40 44 46 45 48 43 40 45 52 60 66 68 69 66 64 63 62 62 61 56 56 53 53 51 50 51 49 42 44 40 43 39 37 39 36 39 37 33 35 34 34 28 26 23 24 36
31 34 35 38 40 43 41 44 42 33 31 38 44 50 54 60 68 70 69 69 68 67 64 57 57 54 54 53 54 53 46 48 45 45 43 43 42 43 41 41 26 34 32 33 30 29 22 22 28
27 30 33 37 39 41 43 44 43 31 25 30 32 25 29 33 42 56 67 72 72 72 72 67 62 59 56 57 56 57 57 54 51 49 49 48 43 46 47 45 41 28 30 25 33 32 27 30 29
31 33 36 39 42 44 45 45 45 38 32 31 29 26 30 33 34 36 43 57 70 75 74 75 70 66 61 60 60 59 61 59 50 56 52 50 45 48 51 45 44 24 35 31 30 31 27 28 26
32 34 36 39 42 44 45 48 49 43 37 35 33 29 29 35 40 42 44 44 50 61 75 74 76 71 68 64 63 63 63 63 60 57 56 49 46 51 55 49 49 41 35 26 24 34 33 32 28
35 36 39 41 44 45 46 48 51 48 40 38 37 34 30 28 31 42 50 48 48 52 57 72 78 79 71 70 67 66 66 65 62 60 53 48 50 58 53 48 51 35 39 42 29 26 33 31 27
38 38 40 44 47 46 48 48 51 49 45 42 43 42 36 31 31 32 36 38 45 53 58 62 78 83 79 73 73 70 69 68 65 65 56 56 62 63 56 50 48 51 23 42 33 31 28 28 28
40 41 41 44 47 46 47 49 51 51 47 43 43 43 40 34 30 28 27 26 31 34 45 59 68 81 85 78 76 74 72 71 70 67 64 68 63 63 58 55 56 46 37 39 33 29 25 28 28
41 43 43 44 45 46 48 49 50 51 52 47 43 41 42 38 30 26 24 21 21 21 25 32 46 63 80 85 78 79 76 74 72 69 66 68 66 63 62 58 55 50 44 39 41 35 29 29 29
41 44 48 47 43 44 49 51 50 51 52 52 49 44 43 44 38 30 23 23 22 20 21 26 33 43 59 80 84 82 80 78 76 74 72 68 69 66 65 58 55 51 48 47 39 40 37 32 31
42 44 47 48 47 43 46 48 51 50 51 54 55 52 49 51 47 39 27 24 23 22 21 23 29 33 41 58 78 83 84 82 79 78 76 75 71 72 64 62 58 55 53 52 49 43 39 38 35
45 45 45 49 51 49 48 49 50 51 52 54 58 56 53 53 52 45 33 26 24 24 22 21 24 30 31 36 56 75 83 85 83 81 79 77 75 77 62 66 65 58 57 56 53 51 47 43 41
45 47 46 48 52 55 50 50 51 53 52 54 57 57 54 54 56 51 38 28 25 26 25 24 22 23 31 31 35 54 75 85 86 84 82 80 78 77 77 70 66 65 65 62 58 54 51 48 46
44 48 49 46 48 52 56 52 52 52 52 52 55 58 58 56 58 56 46 34 29 28 27 25 22 18 22 28 25 34 54 72 86 86 85 83 82 79 78 75 70 65 66 66 62 58 55 53 49
45 46 49 49 47 50 52 54 53 52 53 53 54 56 60 59 58 60 53 39 33 32 29 22 16 11 13 21 17 16 36 54 72 88 87 85 84 81 78 77 74 73 70 68 66 62 59 56 53
Wind_Direction
260 258 252 244 236 221 203 198 213 205 210 215 221 233 230 245 236 244 253 258 260 265 268 278 282 286 290 291 222 230 227 237 249 254 252 249 251 262 274 271 268 268 268 261 233 211 194 191 189
262 257 246 236 226 210 205 200 210 214 215 218 229 238 241 239 247 234 243 253 259 261 259 271 281 293 295 276 214 222 220 222 232 249 253 253 247 252 260 258 257 267 268 268 245 221 200 197 199
254 248 245 232 223 217 207 205 211 219 224 228 239 247 254 261 260 268 248 251 253 259 257 268 280 288 292 204 217 226 223 212 220 231 250 255 248 246 251 260 259 260 261 272 231 213 212 202 203
260 263 259 251 236 226 212 209 217 223 226 230 246 257 260 265 270 264 265 262 265 265 271 273 278 274 281 217 206 215 217 221 221 232 247 253 251 246 249 250 252 252 269 259 236 241 220 206 203
262 264 272 263 248 237 222 215 223 238 245 243 255 260 264 266 266 265 266 257 265 271 273 281 276 268 262 222 216 213 214 216 220 228 236 247 244 245 246 250 248 249 254 257 255 238 209 206 205
272 265 261 260 246 231 232 226 226 237 251 251 260 258 261 263 264 268 267 271 269 272 275 278 279 264 260 218 217 215 223 222 220 222 227 236 241 238 244 252 248 248 253 251 250 233 211 204 203
289 280 267 252 247 231 228 228 233 237 248 255 258 259 260 263 264 261 265 270 272 273 275 276 279 266 260 242 228 217 222 231 230 226 226 227 237 240 241 249 246 255 262 258 257 236 225 200 199
294 288 283 280 259 246 237 239 241 242 247 254 257 256 255 255 257 261 264 270 273 272 272 272 271 264 263 259 246 225 220 225 225 226 227 226 231 234 250 253 252 252 262 272 266 230 214 203 200
310 298 284 272 262 254 251 247 247 249 249 252 255 257 260 262 262 261 264 264 264 263 265 264 261 258 257 259 246 229 216 225 222 226 224 222 225 229 222 242 249 257 263 285 260 224 208 206 192
331 322 307 295 284 276 268 262 261 262 259 260 261 259 261 263 263 262 262 262 263 258 255 256 253 254 256 257 259 255 248 223 224 224 223 225 230 227 238 241 244 253 253 253 274 224 206 182 180
349 349 343 330 317 306 296 288 281 274 267 264 262 261 262 262 262 261 260 259 264 262 252 251 246 246 250 251 253 260 243 226 228 227 232 230 227 227 239 239 245 243 243 233 238 204 199 190 185
349 344 338 330 323 317 310 307 299 288 275 270 267 265 264 262 262 262 261 259 261 263 256 247 244 239 243 247 247 244 244 228 228 231 226 223 225 227 234 239 242 248 236 234 230 215 208 198 191
346 337 331 328 325 321 316 312 304 292 281 273 267 265 263 261 259 259 260 261 259 260 254 248 242 236 233 240 243 242 243 254 211 219 228 225 222 225 229 227 230 235 240 238 233 226 222 201 197
342 338 334 331 329 329 322 316 310 298 287 278 270 263 261 261 260 257 256 254 253 252 250 246 242 237 228 229 237 237 238 242 230 212 214 216 218 215 233 224 217 223 231 232 233 227 230 208 198
340 337 336 337 340 339 332 326 315 304 296 291 284 277 268 261 256 256 255 253 250 247 246 245 240 237 230 226 229 229 230 235 237 236 234 230 223 228 227 206 218 217 225 229 228 235 229 215 203
344 344 344 345 347 345 337 333 321 305 293 288 285 280 276 273 269 261 252 251 247 242 242 241 238 234 232 227 225 225 227 228 233 239 233 233 231 233 235 235 219 219 219 226 227 236 227 226 215
350 344 343 339 343 348 345 344 332 316 304 296 285 277 278 275 270 265 263 257 253 244 238 235 236 232 229 227 224 225 214 230 222 233 229 233 232 231 233 236 228 216 214 227 224 227 232 229 223
346 342 341 340 344 352 354 355 348 336 322 316 285 289 291 284 277 270 264 261 258 252 240 231 229 230 226 225 223 222 222 213 225 224 229 228 234 229 229 231 241 218 210 222 221 222 226 237 218
353 346 348 345 349 355 359 358 358 350 345 338 329 305 295 288 284 280 274 264 257 254 251 234 226 228 224 223 221 221 222 221 213 229 226 226 230 231 227 229 235 227 201 214 222 222 211 222 225
354 353 351 350 352 356 0 2 358 356 349 350 344 336 309 287 280 279 277 274 263 258 252 248 230 222 223 222 221 220 221 222 213 225 225 226 229 226 225 227 234 233 216 208 214 214 213 219 222
1 357 354 354 357 358 1 3 359 360 353 352 354 347 337 320 297 277 272 271 269 259 255 249 239 225 217 220 221 220 220 220 216 221 220 225 227 218 218 227 231 227 237 225 214 219 213 210 215
5 3 359 357 359 360 0 2 1 360 359 355 355 353 347 335 323 300 286 279 272 263 256 248 242 230 219 216 219 219 219 219 217 218 209 211 218 216 216 217 216 220 231 210 228 232 216 208 208
7 6 4 2 1 0 2 3 3 0 0 359 356 355 350 339 327 319 294 288 287 274 262 254 248 237 227 216 217 218 218 219 217 219 214 212 223 214 222 226 221 222 215 229 220 221 227 211 211
7 8 8 9 3 2 3 3 3 2 1 360 359 356 355 349 338 325 318 295 295 283 271 256 250 248 235 225 214 216 217 217 218 218 216 213 218 221 226 231 225 227 225 231 231 235 233 223 221
5 7 9 11 11 2 4 5 3 3 2 360 359 359 358 357 352 340 321 313 295 292 276 260 243 242 241 231 221 214 215 216 216 218 215 217 216 217 222 232 231 224 228 230 234 239 242 239 241
6 6 8 9 11 9 6 5 5 4 2 0 0 0 0 0 357 349 333 313 313 299 289 272 251 240 239 235 228 217 215 215 215 217 218 218 216 220 213 217 225 230 226 228 233 236 239 247 253
10 8 7 9 10 14 9 7 7 6 3 1 1 1 1 360 357 355 344 326 317 310 303 291 269 246 239 234 228 225 215 216 215 216 218 219 218 221 217 218 219 221 230 229 231 233 238 241 247
14 11 9 7 7 9 13 9 8 9 7 3 3 2 1 0 360 357 352 338 325 315 312 304 290 262 237 238 226 223 223 214 215 216 217 220 220 218 220 219 221 221 225 230 231 233 237 240 242
12 12 12 10 7 8 9 12 8 9 8 6 5 4 4 4 2 359 358 353 340 329 317 305 292 270 237 228 230 214 221 221 214 216 217 219 221 222 222 224 226 225 227 229 231 232 233 238 239
8 11 11 11 10 9 8 9 10 10 9 9 7 6 6 6 5 5 3 4 358 349 342 331 305 261 221 209 226 221 210 219 219 215 217 219 222 223 223 223 224 223 226 230 231 231 233 235 237
Height
5806 5807 5808 5809 5814 5814 5813 5813 5812 5815 5816 5817 5816 5817 5818 5819 5821 5825 5826 5825 5826 5826 5825 5824 5826 5824 5825 5825 5826 5826 5827 5828 5828 5829 5830 5832 5834 5833 5835 5836 5837 5837 5837 5838 5838 5839 5841 5845 5848
5804 5804 5805 5806 5808 5806 5806 5807 5807 5809 5811 5812 5814 5814 5814 5815 5816 5818 5820 5821 5821 5822 5823 5822 5822 5820 5818 5818 5822 5823 5824 5825 5827 5827 5828 5830 5831 5832 5834 5835 5836 5835 5835 5837 5837 5839 5841 5844 5848
5802 5802 5803 5803 5803 5802 5802 5803 5803 5805 5806 5807 5808 5809 5810 5811 5811 5811 5817 5817 5817 5818 5818 5819 5819 5818 5814 5814 5819 5821 5822 5821 5823 5824 5826 5829 5829 5830 5834 5834 5834 5834 5834 5835 5835 5837 5841 5843 5848
5800 5802 5803 5801 5801 5800 5799 5799 5798 5800 5801 5802 5804 5805 5807 5807 5807 5808 5808 5813 5811 5813 5814 5814 5815 5814 5810 5810 5812 5815 5817 5819 5819 5821 5823 5826 5826 5828 5831 5833 5833 5832 5833 5834 5833 5837 5840 5842 5846
5799 5800 5801 5801 5800 5799 5798 5797 5796 5797 5798 5799 5800 5801 5802 5803 5803 5801 5799 5805 5806 5807 5809 5809 5809 5809 5809 5809 5810 5811 5813 5815 5816 5817 5820 5821 5823 5825 5828 5830 5830 5830 5831 5832 5833 5833 5838 5842 5845
5798 5798 5798 5799 5798 5797 5796 5796 5795 5793 5793 5795 5796 5797 5798 5798 5799 5797 5795 5793 5799 5799 5802 5803 5804 5805 5806 5806 5808 5809 5810 5812 5812 5813 5816 5817 5820 5822 5826 5826 5827 5828 5829 5830 5831 5832 5835 5840 5843
5798 5797 5797 5796 5795 5793 5792 5792 5791 5790 5790 5790 5790 5790 5792 5791 5792 5792 5791 5789 5791 5791 5794 5795 5798 5798 5799 5798 5800 5805 5807 5807 5808 5810 5811 5813 5816 5820 5823 5823 5824 5825 5827 5828 5828 5829 5832 5836 5841
5795 5796 5794 5793 5792 5790 5789 5787 5785 5783 5782 5781 5782 5782 5783 5784 5784 5784 5784 5784 5782 5784 5786 5789 5791 5792 5792 5793 5794 5799 5802 5803 5805 5807 5808 5809 5813 5818 5821 5820 5820 5822 5823 5825 5824 5825 5830 5833 5838
5792 5792 5791 5791 5789 5788 5785 5782 5779 5776 5775 5773 5772 5771 5771 5773 5774 5775 5775 5775 5777 5777 5777 5781 5784 5785 5786 5787 5788 5791 5796 5798 5799 5802 5803 5807 5810 5813 5816 5817 5818 5821 5821 5821 5821 5819 5824 5830 5833
5791 5790 5788 5786 5784 5781 5779 5776 5773 5771 5769 5767 5765 5764 5762 5760 5762 5763 5763 5763 5765 5768 5769 5771 5775 5776 5778 5779 5780 5784 5789 5792 5794 5797 5800 5802 5805 5808 5811 5814 5816 5818 5819 5820 5817 5817 5822 5827 5833
5789 5787 5786 5783 5779 5775 5771 5767 5764 5761 5758 5757 5756 5754 5750 5746 5747 5748 5750 5751 5751 5755 5759 5760 5764 5768 5769 5772 5775 5779 5782 5787 5789 5792 5795 5797 5800 5803 5808 5810 5814 5815 5818 5819 5818 5820 5822 5826 5832
5785 5783 5781 5777 5773 5768 5763 5757 5750 5747 5744 5743 5741 5738 5734 5732 5733 5734 5736 5738 5740 5742 5745 5749 5752 5757 5760 5763 5767 5772 5778 5782 5783 5787 5789 5791 5795 5799 5803 5806 5810 5812 5815 5818 5818 5819 5824 5826 5831
5783 5779 5776 5772 5767 5761 5754 5745 5739 5732 5728 5725 5723 5722 5720 5718 5719 5719 5720 5723 5727 5729 5732 5736 5740 5744 5750 5753 5758 5763 5768 5772 5776 5781 5784 5786 5790 5795 5798 5801 5805 5807 5812 5815 5817 5817 5820 5825 5830
5776 5772 5768 5764 5759 5752 5742 5732 5725 5717 5711 5707 5705 5703 5700 5700 5701 5703 5705 5707 5711 5714 5718 5723 5727 5731 5738 5742 5747 5754 5758 5762 5767 5773 5777 5779 5784 5787 5790 5796 5798 5803 5806 5810 5814 5813 5814 5821 5826
5772 5768 5762 5756 5751 5742 5733 5723 5710 5701 5694 5689 5684 5682 5680 5678 5681 5684 5686 5690 5694 5699 5703 5708 5715 5720 5725 5731 5736 5742 5748 5752 5758 5764 5768 5773 5777 5782 5785 5790 5793 5796 5801 5804 5808 5810 5811 5816 5821
5768 5761 5754 5747 5740 5733 5723 5712 5701 5691 5682 5676 5670 5665 5661 5659 5659 5661 5665 5669 5673 5678 5686 5692 5699 5707 5713 5720 5725 5730 5737 5743 5749 5755 5762 5766 5771 5775 5777 5780 5787 5790 5795 5799 5803 5806 5807 5810 5815
5765 5759 5754 5747 5741 5733 5722 5707 5691 5681 5672 5663 5654 5648 5643 5641 5638 5639 5642 5644 5648 5654 5664 5675 5682 5692 5699 5706 5713 5719 5726 5732 5739 5746 5753 5759 5764 5768 5771 5774 5777 5784 5789 5794 5798 5802 5802 5804 5808
5767 5760 5754 5745 5738 5728 5715 5701 5686 5674 5666 5656 5646 5638 5632 5628 5624 5620 5622 5626 5629 5633 5641 5654 5664 5673 5684 5691 5700 5707 5715 5723 5729 5735 5743 5750 5756 5760 5765 5769 5772 5778 5785 5785 5791 5795 5796 5798 5800
5763 5756 5747 5738 5728 5719 5707 5694 5681 5667 5659 5649 5639 5631 5625 5620 5616 5611 5608 5609 5610 5614 5619 5631 5645 5655 5667 5675 5685 5694 5701 5708 5717 5725 5730 5740 5746 5751 5757 5762 5766 5771 5776 5777 5784 5788 5789 5789 5795
5760 5751 5744 5735 5725 5715 5703 5689 5674 5661 5652 5643 5633 5624 5616 5609 5604 5601 5597 5595 5596 5599 5602 5610 5623 5636 5648 5660 5669 5680 5689 5697 5705 5712 5719 5728 5736 5742 5748 5754 5758 5765 5768 5776 5776 5780 5782 5785 5789
5757 5747 5738 5729 5718 5708 5697 5684 5670 5657 5646 5637 5627 5619 5610 5600 5592 5586 5583 5584 5582 5582 5585 5591 5603 5615 5629 5642 5653 5664 5675 5685 5694 5701 5708 5717 5724 5732 5739 5745 5753 5759 5761 5770 5772 5773 5777 5781 5783
5754 5745 5733 5722 5711 5699 5688 5677 5666 5655 5643 5631 5621 5611 5603 5595 5585 5578 5572 5571 5570 5569 5569 5573 5580 5598 5612 5624 5635 5647 5659 5671 5680 5687 5697 5706 5715 5722 5729 5737 5743 5748 5754 5759 5763 5766 5769 5773 5777
5752 5742 5732 5720 5708 5696 5685 5676 5666 5654 5643 5632 5620 5610 5599 5591 5583 5573 5566 5562 5559 5556 5556 5559 5564 5577 5595 5609 5620 5630 5643 5655 5666 5675 5684 5694 5703 5712 5718 5725 5733 5739 5744 5748 5754 5758 5761 5766 5769
5749 5741 5732 5721 5708 5698 5688 5677 5666 5653 5641 5630 5620 5610 5599 5588 5577 5569 5562 5556 5552 5548 5546 5547 5550 5556 5571 5589 5605 5614 5626 5639 5650 5661 5671 5680 5691 5700 5708 5714 5722 5729 5735 5740 5746 5750 5754 5757 5760
5748 5739 5730 5720 5709 5697 5686 5675 5663 5652 5640 5629 5619 5608 5596 5583 5571 5563 5557 5550 5545 5543 5540 5539 5540 5542 5550 5566 5584 5599 5610 5623 5636 5647 5657 5668 5678 5688 5695 5703 5711 5719 5726 5731 5736 5742 5747 5751 5753
5746 5737 5727 5717 5708 5699 5686 5676 5665 5652 5639 5628 5615 5602 5588 5576 5565 5557 5549 5544 5539 5535 5532 5531 5531 5532 5535 5546 5564 5581 5595 5607 5620 5632 5643 5654 5664 5674 5683 5694 5702 5709 5716 5723 5730 5736 5741 5745 5747
5745 5736 5727 5717 5708 5699 5687 5676 5664 5650 5639 5626 5612 5597 5584 5573 5564 5553 5544 5536 5532 5528 5525 5523 5522 5524 5527 5532 5546 5561 5580 5593 5606 5617 5628 5639 5651 5661 5669 5680 5691 5700 5707 5714 5721 5727 5734 5739 5743
5746 5737 5727 5716 5704 5694 5686 5674 5662 5649 5637 5626 5613 5599 5587 5574 5560 5548 5539 5531 5526 5521 5518 5516 5514 5514 5518 5524 5533 5547 5561 5577 5591 5604 5615 5626 5637 5649 5657 5668 5678 5689 5697 5704 5711 5719 5725 5730 5736
5746 5737 5726 5717 5706 5694 5682 5674 5661 5650 5639 5628 5615 5602 5588 5573 5560 5549 5537 5527 5520 5515 5510 5506 5505 5506 5510 5518 5526 5537 5546 5560 5576 5590 5600 5612 5622 5634 5645 5656 5667 5678 5685 5693 5701 5709 5715 5720 5728
5745 5736 5726 5716 5707 5695 5684 5675 5662 5652 5641 5629 5617 5604 5591 5576 5565 5551 5537 5527 5519 5511 5504 5499 5497 5500 5505 5515 5524 5530 5537 5546 5559 5574 5586 5598 5609 5619 5631 5644 5655 5665 5673 5681 5690 5698 5704 5710 5717